Regional Weather Roundup
Issued by NWS Cleveland, OH

Home | Current Version | Previous Version | Graphics & Text | Print | Product List | Glossary On
Versions: 1 2 3 4 5 6 7 8 9 10 11 12 13 14 15 16 17 18 19 20 21 22 23 24 25 26 27 28 29 30 31 32 33 34 35 36 37 38 39 40 41 42 43 44 45 46 47 48 49 50
000
ASUS41 KCLE 312212
RWRCLE
OHIO REGIONAL WEATHER ROUNDUP
NATIONAL WEATHER SERVICE WILMINGTON, OH
600 PM EDT TUE MAY 31 2016

NOTE: "FAIR" INDICATES FEW OR NO CLOUDS BELOW 12,000 FEET WITH NO
SIGNIFICANT WEATHER AND/OR OBSTRUCTIONS TO VISIBILITY.

OHZ001>008-015>018-024>027-034-035-043-044-312300-
   NORTHWEST OHIO

CITY           SKY/WX    TMP DP  RH WIND       PRES   REMARKS
DEFIANCE       FAIR      83  50  31 E10       30.00S
FINDLAY        FAIR      83  49  30 NE14G22   30.00S
TOLEDO EXPRESS FAIR      80  47  31 NE14      30.02S
TOLEDO EXEC    FAIR      80  48  32 E9        30.03S
LIMA           FAIR      85  51  31 NE13      29.98S
$$

OHZ009>014-019>023-028>033-038-089-312300-
   NORTHEAST OHIO

CITY           SKY/WX    TMP DP  RH WIND       PRES   REMARKS
CLE-HOPKINS    PTSUNNY   79  46  31 NE20G26   30.04F
CLE-LAKEFRONT  FAIR      73  64  73 NE9       30.02S
CUY CO. ARPT   PTSUNNY   81  52  36 NE14      30.04S
LORAIN-ELYRIA  FAIR      80  44  27 NE15      30.03S
ASHTABULA      FAIR      77  48  35 VRB5      30.04S
AKRON-CANTON   PTSUNNY   81  59  47 N16G23    30.00S
WOOSTER        FAIR      81  55  40 N12       30.02R
MANSFIELD      FAIR      79  56  45 NE10      30.02S
YOUNGSTOWN     CLOUDY    79  55  43 N14       30.02S
$$

OHZ042-051>053-060>062-070>072-077>081-312300-
  SOUTHWEST OHIO

CITY           SKY/WX    TMP DP  RH WIND       PRES   REMARKS
CINC-COVINGTON CLOUDY    81  60  48 NE15      29.96S
CINC-LUNKEN    FAIR      81  63  54 S7        29.95S
HAMILTON       FAIR      86  58  38 CALM      29.95F
DAYTON         CLOUDY    83  57  41 NE6       29.97S
WRIGHT-PAT AFB MOSUNNY   87  51  28 S2        29.95S
DAYTON GENERAL FAIR      85  53  33 SW5       29.95F
WILMINGTON     FAIR      84  55  36 CALM      29.96F
$$

OHZ036-037-039>041-045>050-054>059-063>069-073>076-082>088-312300-
  CENTRAL AND SOUTHEAST OHIO

CITY           SKY/WX    TMP DP  RH WIND       PRES   REMARKS
COLUMBUS       CLOUDY    85  53  33 NE6       29.96S
OSU AIRPORT    FAIR      84  59  42 N6        29.96S
BOLTON FIELD   MOSUNNY  N/A N/A N/A CALM      29.96F
RICKENBACK AFB FAIR      84  59  42 CALM      29.95S
NEWARK         FAIR      87  53  31 N3        29.96S
MARION         FAIR      82  57  42 NE13      30.00S
LANCASTER      PTSUNNY   86  58  38 VRB3      29.97S
ZANESVILLE     PTSUNNY   86  58  38 E3        29.97S
NEW PHILLY     FAIR      88  51  28 N5        29.98S
$$




USA.gov is the U.S. government's official web portal to all federal, state and local government web resources and services.